Preview of NWS' New Version of Forecast
This preview is not operational and should not be used for support decisions.

Regional Weather Roundup (RWR)

Issued by National Weather Service (NWS)

                            
000
ASUS46 KPQR 260210
RWROR 

OREGON REGIONAL WEATHER ROUNDUP
NATIONAL WEATHER SERVICE PORTLAND OR
700 PM PDT SUN AUG 25 2019

NOTE: "FAIR" INDICATES FEW OR NO CLOUDS BELOW 12,000 FEET WITH
NO SIGNIFICANT WEATHER AND/OR OBSTRUCTIONS TO VISIBILITY.

ORZ001>013-260300-
NORTHWEST OREGON

  
CITY           SKY/WX    TMP DP  RH WIND       PRES   REMARKS
ASTORIA        SUNNY     64  53  67 NW16      30.20F                  
TILLAMOOK      SUNNY     64  54  68 W12       30.19S                  
NEWPORT        SUNNY     63  55  77 N14       30.17F HAZE             
FLORENCE       FAIR      64  54  68 N12G17    30.10S                  
PORTLAND       CLEAR     76  53  44 N6        30.13S                  
VANCOUVER WA   CLEAR     75  52  44 NW9       30.13S                  
SCAPPOOSE      CLEAR     75  52  44 N9        30.13S                  
HILLSBORO      CLEAR     75  51  43 N10       30.14R                  
AURORA         CLEAR     77  50  38 NE10      30.14S                  
MCMINNVILLE    SUNNY     77  48  35 N10       30.13R                  
SALEM          CLEAR     78  48  34 N14       30.11S                  
CORVALLIS      SUNNY     79  52  38 NE15      30.11F                  
EUGENE         CLEAR     79  45  29 N14       30.10F                  
CRESWELL       CLEAR     79  45  29 N13G20    30.08S                  
$$

ORZ021-028-260300-
SOUTHWEST OREGON

  
CITY           SKY/WX    TMP DP  RH WIND       PRES   REMARKS
NORTH BEND     SUNNY     63  55  75 N23       30.10F                  
BROOKINGS      SUNNY     64  56  75 S5        29.97F                  
ROSEBURG       SUNNY     83  47  28 NW10      30.05S                  
SEXTON SUMMIT  CLEAR     67  48  50 VRB7      30.16S                  
GRANTS PASS    FAIR      84  46  26 NW14G22   30.05R                  
MEDFORD        CLEAR     89  48  24 N10       29.99R                  
$$

ORZ014>016-041-260300-
COLUMBIA GORGE

  
CITY           SKY/WX    TMP DP  RH WIND       PRES   REMARKS
TROUTDALE      CLEAR     77  51  40 VRB3      30.12F                  
HOOD RIVER     CLEAR     73  43  33 SW5       30.10S                  
THE DALLES     CLEAR     78  45  30 W17G28    30.04R                  
$$

ORZ029>031-041-044-049-050-061>064-502-503-505>511-260300-
EASTERN OREGON

  
CITY           SKY/WX    TMP DP  RH WIND       PRES   REMARKS
MADRAS         CLEAR     73  34  23 NW16      30.13S                  
REDMOND        CLEAR     78  33  19 N12       30.13R                  
BEND           CLEAR     79  37  22 N9        30.14R                  
PRINEVILLE     CLEAR     75  36  23 N13       30.13R                  
KLAMATH FALLS  CLEAR     81  42  25 N14       30.12R                  
LAKEVIEW       CLEAR     81  36  19 NW10      30.14R                  
HERMISTON      CLEAR     82  41  23 SW6       30.01S                  
PENDLETON      CLEAR     78  37  22 NW7       30.05R                  
JOHN DAY       CLEAR     75  32  21 N12       30.14R                  
MEACHAM        CLEAR     66  38  35 VRB3      30.16R                  
LA GRANDE      CLEAR     73  41  31 NW9       30.10R                  
BAKER CITY     CLEAR     73  37  27 N17       30.10R                  
BURNS          CLEAR     77  33  20 NW10      30.13R                  
ROME             N/A     83  30  14 N16G23    30.06R                  
ONTARIO        CLEAR     83  40  21 N16       30.00R                  
$$